Regional Weather Roundup
Issued by NWS

Home | Current Version | Previous Version | Graphics & Text | Print | Product List | Glossary On
Versions: 1 2 3 4 5 6 7 8 9 10 11 12 13 14 15 16 17 18 19 20 21 22 23 24 25 26 27 28 29 30 31 32 33 34 35 36 37 38 39 40 41 42 43 44 45 46 47 48 49 50
000
ASUS43 KMPX 210801
RWRMN
WEATHER ROUNDUP FOR MINNESOTA
NATIONAL WEATHER SERVICE TWIN CITIES/CHANHASSEN MN
200 AM CST SUN DEC 21 2014


NOTE: "FAIR" INDICATES FEW OR NO CLOUDS BELOW 12,000 FEET WITH NO
SIGNIFICANT WEATHER AND/OR OBSTRUCTIONS TO VISIBILITY. N/A MEANS
CURRENT SKY AND/OR WEATHER CONDITIONS ARE NOT AVAILABLE.

MNZ060>063-068>070-210900-
   Twin Cities Metro

CITY           SKY/WX    TMP DP  RH WIND       PRES   REMARKS
TWIN CITIES    CLOUDY    31  27  85 SE9       30.04F WCI  23
ST PAUL        CLOUDY    32  28  85 SE9       30.06F WCI  24
CRYSTAL        CLOUDY    32  28  85 SE10      30.02F WCI  24
BLAINE         CLOUDY    34  30  86 SE8       30.03F WCI  27
LAKEVILLE      CLOUDY    30  28  93 SE6       30.04F FOG     WCI  24
EDEN PRAIRIE   CLOUDY    31  28  89 SE9       30.02F WCI  23
SOUTH ST PAUL  CLOUDY    32  28  86 SE7       30.05F WCI  26
LAKE ELMO      CLOUDY    32  30  93 SE8       30.05F WCI  25
$$
MNZ001>005-007-008-013>017-022>024-027-028-210900-
   Northwest Minnesota

CITY           SKY/WX    TMP DP  RH WIND       PRES   REMARKS
BEMIDJI        CLOUDY    28  27  96 S14       29.87F WCI  16
HALLOCK        CLOUDY    32  30  93 CALM      29.79F FOG
ROSEAU         CLOUDY    30  27  86 S12       29.83F FOG     WCI  21
WARROAD        CLOUDY    30  27  86 SE8       29.84F FOG     WCI  23
THIEF RVR FALL CLOUDY    30  28  93 S16       29.83F WCI  19
CROOKSTON      CLOUDY    30  30 100 S23       29.83F FOG     WCI  17
FOSSTON        CLOUDY    27  27 100 S14       29.85F WCI  15
DETROIT LAKES  CLOUDY    30  30 100 S14G23    29.87F FOG     WCI  20
MOORHEAD       CLOUDY    32  32 100 S17       29.86F FOG     WCI  21
PARK RAPIDS    CLOUDY    29  28  96 S15G21    29.89S FOG     WCI  18
MAHNOMEN       CLOUDY    29  28  94 S16       29.85F WCI  17
$$
MNZ006-009>011-018-025>026-210900-
   North Central Minnesota

CITY           SKY/WX    TMP DP  RH WIND       PRES   REMARKS
BAUDETTE       LGT SNOW  29  27  92 SE6       29.86F FOG     WCI  23
FLAG ISLAND    LGT SNOW  28  28 100 S15       29.85S VSB 1   WCI  17
INTL FALLS     LGT SNOW  28  26  92 VRB6      29.91F FOG     WCI  22
WASKISH        LGT SNOW  28  28 100 CALM      29.87F
BIG FORK       CLOUDY    28  27  93 S13       29.92F FOG     WCI  18
LONGVILLE      CLOUDY    27  27 100 S14G20    29.92F FOG     WCI  15
GRAND RAPIDS   CLOUDY    27  27 100 S18       29.93F WCI  13
CRANE LAKE     CLOUDY    28  27  93 S5        29.98S FOG     WCI  23
ORR            CLOUDY    27  25  93 S9        29.93S WCI  17
COOK           CLOUDY    28  27  93 S8        29.96F FOG     WCI  20
WALKER         CLOUDY    27  26  94 S7        29.90F WCI  20
$$
MNZ012-019>021-037-210900-
   Northeast Minnesota

CITY           SKY/WX    TMP DP  RH WIND       PRES   REMARKS
DULUTH         FLURRIES  30  26  85 S14G22    29.99F WCI  19
ELY            CLOUDY    28  27  93 S9        29.97F FOG     WCI  20
HIBBING        CLOUDY    29  25  85 S8        29.96F WCI  21
EVELETH        CLOUDY    30  30 100 S10       29.98F WCI  21
DULUTH HARBOR  CLOUDY    34  28  80 S8        30.05S WCI  27
TWO HARBORS    CLOUDY    34  28  80 S9        30.00F WCI  26
SILVER BAY     CLOUDY    32  28  86 S8        30.01S WCI  25
GRAND MARAIS     N/A     34  28  79 S16       30.06F WCI  24
G MARAIS ARPRT CLOUDY    27  23  86 S9        30.00F FOG     WCI  17
$$
MNZ029>031-032-039>041-046>048-054>057-064-210900-
   West Central Minnesota

CITY           SKY/WX    TMP DP  RH WIND       PRES   REMARKS
FERGUS FALLS   CLOUDY    28  28 100 S18       29.91F FOG     WCI  16
WHEATON        CLOUDY    28  27  93 S12       29.90F FOG     WCI  18
MORRIS         CLOUDY    30  30 100 S14       29.89F FOG     WCI  20
ALEXANDRIA     CLOUDY    30  28  92 S14G22    29.91F FOG     WCI  19
ELBOW LAKE     CLOUDY    29  29  99 S15       29.89F FOG     WCI  18
WADENA         CLOUDY    28  27  93 S15       29.90F FOG     WCI  17
GLENWOOD       CLOUDY    30  28  93 S16       29.92F FOG     WCI  19
APPLETON       CLOUDY    32  30  93 S10       29.91F WCI  24
BENSON         CLOUDY    32  28  86 S14       29.91F WCI  22
ORTONVILLE     CLOUDY    30  27  86 S9        29.89F FOG     WCI  22
MADISON        PTCLDY    36  34  93 S14       29.90F FOG
WILLMAR        CLOUDY    32  30  93 SE14      29.95F FOG     WCI  22
$$
MNZ033>034-036-042>043-049>051-058-059-210900-
   Central Minnesota

CITY           SKY/WX    TMP DP  RH WIND       PRES   REMARKS
ST CLOUD       CLOUDY    32  28  85 S12       29.98F FOG     WCI  23
SAUK CENTRE    CLOUDY    30  29  96 S13       29.94F WCI  20
PAYNESVILLE    CLOUDY    29  28  99 SE9       29.95F FOG     WCI  20
AITKIN         CLOUDY    30  27  86 S9        29.95F WCI  22
PINE RIVER     CLOUDY    27  27 100 S10G18    29.96F FOG     WCI  17
BRAINERD       CLOUDY    28  27  96 S14G20    29.95F FOG     WCI  17
STAPLES        CLOUDY    28  28 100 S14G20    29.93F FOG     WCI  17
LONG PRAIRIE   CLOUDY    30  28  93 SE16      29.93F FOG     WCI  19
LITTLE FALLS   CLOUDY    30  28  93 SE9       29.96F FOG     WCI  22
LITCHFIELD     CLOUDY    32  32 100 S7        29.97F FOG     WCI  26
BUFFALO        CLOUDY    31  28  89 SE8       30.01F WCI  24
MAPLE LAKE     CLOUDY    32  31  94 SE7       30.00F FOG     WCI  26
$$
MNZ037-044-045-052-053-210900-
   East Central Minnesota

CITY           SKY/WX    TMP DP  RH WIND       PRES   REMARKS
PRINCETON      CLOUDY    32  28  86 S7        30.01F WCI  26
MORA           CLOUDY    32  28  86 S6        30.03F WCI  26
CAMBRIDGE      CLOUDY    34  25  69 SE5       30.01F WCI  30
RUSH CITY      CLOUDY    31  27  87 SE7       30.03F WCI  24
MOOSE LAKE     CLOUDY    30  28  93 S14G21    29.99F WCI  20
HINCKLEY       CLOUDY    32  28  86 S9        30.02F WCI  24
CLOQUET        CLOUDY    28  27  93 S13G18    29.99F WCI  18
MCGREGOR       CLOUDY    30  28  93 S10       29.99S WCI  21
$$
MNZ071>073-080-081-089-090-097-098-210900-
   Southwest Minnesota

CITY           SKY/WX    TMP DP  RH WIND       PRES   REMARKS
MONTEVIDEO     CLOUDY    30  30 100 S7        29.93F FOG     WCI  23
GRANITE FALLS  CLOUDY    32  30  94 SE12G17   29.94F FOG     WCI  23
CANBY          CLOUDY    32  30  94 S9        29.91F FOG     WCI  24
MARSHALL       CLOUDY    30  27  86 S12       29.92F WCI  21
REDWOOD FALLS  CLOUDY    32  30  92 S10       29.96F WCI  24
OLIVIA         CLOUDY    32  30  93 S10       29.96S WCI  24
PIPESTONE      FOG       30  28  93 S5        29.89F VSB 1/4 WCI  25
WINDOM         CLOUDY    30  30 100 S8        29.94F FOG     WCI  23
WORTHINGTON    CLOUDY    30  28  93 S10       29.93F VSB 1   WCI  21
JACKSON        CLOUDY    32  30  93 S12       29.96F FOG     WCI  23
TRACY          CLOUDY    32  31  96 S13G18    29.92F FOG     WCI  22
SLAYTON        FOG       30  30 100 S6        29.92F VSB 3/4 WCI  24
$$
MNZ065>067-074>077-082>085-091>093-210900-
   South Central Minnesota

CITY           SKY/WX    TMP DP  RH WIND       PRES   REMARKS
MANKATO        CLOUDY    34  28  80 S10       30.01F WCI  26
NEW ULM        CLOUDY    32  32 100 S10G16    29.99F FOG     WCI  24
ST JAMES       CLOUDY    34  30  86 SE12G17   29.98F FOG     WCI  25
FAIRMONT       CLOUDY    32  28  86 S14       29.97F WCI  22
GLENCOE        CLOUDY    32  32  99 SE8       29.99F FOG     WCI  25
FARIBAULT      CLOUDY    32  30  93 SE10      30.04F FOG     WCI  24
OWATONNA       CLOUDY    32  30  93 S9        30.04S FOG     WCI  24
WASECA         CLOUDY    32  30  93 S9        30.04S FOG     WCI  24
ALBERT LEA     CLOUDY    34  34 100 S8        30.02S FOG     WCI  27
$$
MNZ078>079-086>088-094>096-210900-
   Southeast Minnesota

CITY           SKY/WX    TMP DP  RH WIND       PRES   REMARKS
ROCHESTER      FOG       30  30 100 S13       30.05F VSB 3/4 WCI  20
RED WING       CLOUDY    34  28  80 SE7       30.07F FOG     WCI  28
STANTON        CLOUDY    33  30  88 S7        30.03F FOG     WCI  27
DODGE CENTER   CLOUDY    32  30  93 S13       30.03F FOG     WCI  22
WINONA         CLOUDY    32  30  93 SE7       30.11S FOG     WCI  26
AUSTIN         CLOUDY    30  30 100 S9        30.04F FOG     WCI  22
PRESTON        FOG       30  29  98 S13       30.07F VSB 1/2 WCI  20
$$
ABBREVIATIONS USED IN REMARKS
   TC - TEMPERATURES IN CELSIUS
  WCI - WIND CHILL INDEX
   HX - HEAT INDEX
  VSB - VISIBILITY
$$


USA.gov is the U.S. government's official web portal to all federal, state and local government web resources and services.